Orbital Elements at Epoch 2459200.5 (2020-Dec-17.0) TDB
Reference: JPL 17 (heliocentric ecliptic J2000)
Element | Value | Uncertainty (1-sigma) | Units |
e | .1285124332371063 | 6.689e-08 | |
a | 2.411180763570888 | 1.2769e-08 | au |
q | 2.101314056669889 | 1.6051e-07 | au |
i | 3.972178634902253 | 6.3948e-06 | deg |
node | 65.71618704861339 | 8.2157e-05 | deg |
peri | 170.1345219909536 | 8.4501e-05 | deg |
M | 162.9936899272932 | 2.061e-05 | deg |
tp | 2458581.327908179623 (2019-Apr-07.82790818) | 7.6853e-05 | TDB |
period | 1367.549585230974 3.74 | 1.0863e-05 2.974e-08 | d yr |
n | .2632445681588923 | 2.0911e-09 | deg/d |
Q | 2.721047470471887 | 1.441e-08 | au |
|
| | Orbit Determination Parameters
Additional Information
|